This is the latest recevied weather packets stored in our database for station/object KB3FCJ-2. If no packets are shown the sender has not sent any weather packets the latest 10 day(s).
| Time | Temp. | Humidity | Pressure | Rain* | Wind** | Luminosity | Snow |
|---|---|---|---|---|---|---|---|
| 1777757759 | 13.33° C | 46% | 628.4 hPa | 0 mm | - | - | - |
| 1777757159 | 13.33° C | 45% | 628.4 hPa | 0 mm | - | - | - |
| 1777756358 | 13.89° C | 46% | 628.4 hPa | 0 mm | - | - | - |
| 1777755759 | 13.89° C | 43% | 628.4 hPa | 0 mm | - | - | - |
| 1777755158 | 13.89° C | 42% | 628.4 hPa | 0 mm | - | - | - |
| 1777754559 | 14.44° C | 43% | 628.4 hPa | 0 mm | - | - | - |
| 1777753958 | 14.44° C | 42% | 628.4 hPa | 0 mm | - | - | - |
| 1777753358 | 13.89° C | 41% | 628.4 hPa | 0 mm | - | - | - |
| 1777752520 | 15° C | 40% | 628.4 hPa | 0 mm | - | - | - |
| 1777751919 | 15° C | 44% | 628.4 hPa | 0 mm | - | - | - |
| 1777751320 | 13.89° C | 43% | 628.4 hPa | 0 mm | - | - | - |
| 1777750720 | 13.89° C | 44% | 628.4 hPa | 0 mm | - | - | - |
| 1777749879 | 14.44° C | 44% | 628.4 hPa | 0 mm | - | - | - |
| 1777749279 | 14.44° C | 45% | 628.4 hPa | 0 mm | - | - | - |
| 1777748678 | 14.44° C | 48% | 628.4 hPa | 0 mm | - | - | - |
| 1777748079 | 13.89° C | 46% | 628.4 hPa | 0 mm | - | - | - |
| 1777747243 | 13.89° C | 47% | 628.4 hPa | 0 mm | - | - | - |
| 1777746644 | 13.89° C | 51% | 628.4 hPa | 0 mm | - | - | - |
| 1777746044 | 13.89° C | 48% | 628.4 hPa | 0 mm | - | - | - |
| 1777745443 | 13.89° C | 47% | 628.4 hPa | 0 mm | - | - | - |
| 1777744607 | 12.78° C | 50% | 628.4 hPa | 0 mm | - | - | - |
| 1777744007 | 13.89° C | 52% | 628.4 hPa | 0 mm | - | - | - |
| 1777743407 | 12.78° C | 53% | 628.4 hPa | 0 mm | - | - | - |
| 1777742807 | 12.78° C | 52% | 628.4 hPa | 0 mm | - | - | - |
| 1777741960 | 12.78° C | 55% | 628.4 hPa | 0 mm | - | - | - |
* Rain latest hour (hover to see other rain measurements)
** Current wind speed in m/s (hover to see current wind gust speed)